Flag for United Kingdom Weather past 2 weeks in Newport (Isle of Wight), England, United Kingdom

Now
60 °F

Cool.


Feels Like: 60 °F
Forecast: 57 / 65 °F
Wind: 13 mph from West

Location: Saint Catherine's Point

Current Time: Aug 28, 2015 at 7:04:55 AM

Latest Report: Aug 28, 2015 at 6:00 AM


Visibility: N/A

Pressure: 29.95 "Hg

Humidity: 77%

Dew point: 53 °F

Location of Newport (Isle of Wight)Location

Historic Weather in Newport (Isle of Wight) — Graph

°F

Newport (Isle of Wight) temperature yesterday

Maximum temperature yesterday: 62 °F (at 6:00 PM)
Minimum temperature yesterday: 60 °F (at 9:00 PM)
Average temperature yesterday: 61 °F

Past Weeks' High & Low Weather Summary

 TemperatureHumidityPressure
High72 °F (Aug 22, 2:00 PM)100% (Aug 14, 3:00 AM)30.16 "Hg (Aug 14, 3:00 AM)
Low54 °F (Aug 16, 6:00 AM)51% (Aug 18, 3:00 AM)29.35 "Hg (Aug 24, 12:00 PM)
Average62 °F85%29.87 "Hg
* Reported Aug 13 4:00 AM — Aug 28 4:00 AM, Newport (Isle of Wight), Weather by CustomWeather, © 2015

Note: Actual official high and low records may vary slightly from our data, if they occured in-between our weather recording intervals... More about our weather records

Advertising

Newport (Isle of Wight) weather history for previous 24 hours

 ConditionsComfort  
Time TempWeatherWind HumidityBarometerVisibility
4:00 AM
Fri, Aug 28
60 °FCool.10 mph78%29.93 "HgN/A
3:00 AM60 °FCool.14 mph83%29.91 "HgN/A
2:00 AM60 °FCool.14 mph82%29.90 "HgN/A
1:00 AM60 °FCool.15 mph82%29.89 "HgN/A
12:00 AM60 °FCool.17 mph82%29.89 "HgN/A
9:00 PM
Thu, Aug 27
60 °FCool.18 mph83%29.84 "HgN/A
8:00 PM61 °FCool.21 mph84%29.82 "HgN/A
7:00 PM61 °FCool.22 mph82%29.80 "HgN/A
6:00 PM62 °FCool.20 mph80%29.80 "HgN/A
5:00 PM62 °FCool.21 mph83%29.79 "HgN/A
4:00 PM61 °FCool.21 mph74%29.78 "HgN/A
3:00 PM62 °FCool.17 mph80%29.78 "HgN/A
2:00 PM61 °FCool.20 mph78%29.78 "HgN/A
1:00 PM61 °FCool.20 mph82%29.77 "HgN/A
12:00 PM61 °FCool.22 mph78%29.77 "HgN/A
11:00 AM61 °FCool.17 mph82%29.76 "HgN/A
10:00 AM61 °FCool.21 mph83%29.74 "HgN/A
9:00 AM61 °FCool.24 mph78%29.73 "HgN/A
8:00 AM61 °FCool.29 mph82%29.70 "HgN/A
7:00 AM61 °FCool.25 mph86%29.69 "HgN/A
Weather by CustomWeather, © 2015

See weather overviewHow to use our weather pages